DLH201 EDDB-EDDF

Flight info

Callsign DLH201
Flight time 0h 56m
Altitude 22000
Route SUKIP3Q/06R SUKIP DCT MAXAN DCT ORTAG T177 ODIPI/N0342F210 T157 KERAX KERAX5A
Aircraft A20N/M-SDE2E3FGHIRWXY/LB1

Departure

Time 2026-05-05 18:34
Airport Berlin Brandenburg Airport (EDDB)

Arrival

Time 2026-05-05 19:30
Airport Frankfurt Main Airport (EDDF)
Time Latitude Longitude Altitude Speed Heading
2026-05-05 18:04 52.36284 13.50655 154 ft 0 kts 69°
2026-05-05 18:21 52.36280 13.50639 154 ft 4 kts 69°
2026-05-05 18:22 52.36270 13.50598 153 ft 4 kts 69°
2026-05-05 18:22 52.36260 13.50557 153 ft 4 kts 69°
2026-05-05 18:22 52.36252 13.50521 152 ft 1 kts 69°
2026-05-05 18:22 52.36243 13.50484 151 ft 4 kts 70°
2026-05-05 18:23 52.36235 13.50443 151 ft 4 kts 75°
2026-05-05 18:23 52.36230 13.50400 150 ft 4 kts 98°
2026-05-05 18:23 52.36238 13.50372 149 ft 1 kts 159°
2026-05-05 18:26 52.36234 13.50374 149 ft 2 kts 160°
2026-05-05 18:27 52.36203 13.50395 149 ft 7 kts 158°
2026-05-05 18:27 52.36143 13.50433 149 ft 11 kts 159°
2026-05-05 18:27 52.36082 13.50472 149 ft 10 kts 159°
2026-05-05 18:27 52.36005 13.50519 149 ft 12 kts 159°
2026-05-05 18:28 52.35897 13.50588 149 ft 2 kts 158°
2026-05-05 18:28 52.35872 13.50605 149 ft 6 kts 158°
2026-05-05 18:28 52.35826 13.50633 149 ft 9 kts 160°
2026-05-05 18:29 52.35765 13.50584 148 ft 13 kts 248°
2026-05-05 18:29 52.35725 13.50423 148 ft 17 kts 247°
2026-05-05 18:29 52.35677 13.50218 148 ft 21 kts 249°
2026-05-05 18:29 52.35624 13.49995 148 ft 18 kts 249°
2026-05-05 18:30 52.35574 13.49783 148 ft 21 kts 248°
2026-05-05 18:30 52.35516 13.49541 148 ft 24 kts 248°
2026-05-05 18:30 52.35456 13.49287 148 ft 21 kts 249°
2026-05-05 18:30 52.35411 13.49096 148 ft 19 kts 248°
2026-05-05 18:31 52.35360 13.48881 148 ft 22 kts 249°
2026-05-05 18:31 52.35307 13.48663 148 ft 12 kts 249°
2026-05-05 18:31 52.35278 13.48526 148 ft 6 kts 246°
2026-05-05 18:31 52.35250 13.48484 148 ft 8 kts 201°
2026-05-05 18:32 52.35188 13.48497 148 ft 10 kts 158°
2026-05-05 18:32 52.35125 13.48543 151 ft 10 kts 146°
2026-05-05 18:32 52.35097 13.48641 153 ft 10 kts 100°
2026-05-05 18:32 52.35087 13.48764 155 ft 12 kts 98°
2026-05-05 18:33 52.35069 13.48902 156 ft 13 kts 109°
2026-05-05 18:33 52.35070 13.49054 157 ft 13 kts 72°
2026-05-05 18:33 52.35120 13.49278 158 ft 45 kts 69°
2026-05-05 18:33 52.35317 13.50108 156 ft 110 kts 69°
2026-05-05 18:34 52.35663 13.51556 206 ft 154 kts 68°
2026-05-05 18:34 52.35933 13.53199 761 ft 151 kts 85°
2026-05-05 18:34 52.35665 13.54837 1280 ft 155 kts 124°
2026-05-05 18:34 52.34734 13.55807 1676 ft 171 kts 167°
2026-05-05 18:35 52.33522 13.55562 2032 ft 184 kts 193°
2026-05-05 18:35 52.32263 13.54850 2274 ft 201 kts 204°
2026-05-05 18:35 52.31010 13.53617 2508 ft 219 kts 212°
2026-05-05 18:35 52.29685 13.52157 2684 ft 243 kts 214°
2026-05-05 18:36 52.28259 13.50436 2891 ft 266 kts 217°
2026-05-05 18:36 52.26776 13.48463 3146 ft 284 kts 219°
2026-05-05 18:36 52.25263 13.46388 3775 ft 279 kts 219°
2026-05-05 18:36 52.23801 13.44422 4717 ft 269 kts 219°
2026-05-05 18:37 52.22351 13.42486 5340 ft 271 kts 219°
2026-05-05 18:37 52.20890 13.40539 5953 ft 272 kts 219°
2026-05-05 18:37 52.19418 13.38582 6539 ft 273 kts 219°
2026-05-05 18:37 52.17932 13.36621 7223 ft 277 kts 219°
2026-05-05 18:38 52.16441 13.34677 8440 ft 273 kts 219°
2026-05-05 18:38 52.14957 13.32769 9489 ft 279 kts 219°
2026-05-05 18:38 52.13392 13.30772 10355 ft 289 kts 219°
2026-05-05 18:38 52.11882 13.28437 10815 ft 312 kts 234°
2026-05-05 18:39 52.10784 13.25265 11307 ft 330 kts 243°
2026-05-05 18:39 52.09791 13.21869 12241 ft 334 kts 244°
2026-05-05 18:39 52.08825 13.18420 13213 ft 337 kts 245°
2026-05-05 18:39 52.07851 13.14923 14068 ft 342 kts 244°
2026-05-05 18:40 52.06861 13.11392 14897 ft 345 kts 244°
2026-05-05 18:40 52.05852 13.07820 15501 ft 350 kts 244°
2026-05-05 18:40 52.04829 13.04220 15733 ft 352 kts 244°
2026-05-05 18:40 52.03798 13.00610 15870 ft 354 kts 244°
2026-05-05 18:41 52.02755 12.96968 16554 ft 356 kts 244°
2026-05-05 18:41 52.01709 12.93320 17453 ft 358 kts 244°
2026-05-05 18:41 52.00649 12.89628 18203 ft 363 kts 244°
2026-05-05 18:41 51.99578 12.85903 18928 ft 365 kts 244°
2026-05-05 18:42 51.98499 12.82157 19655 ft 368 kts 244°
2026-05-05 18:42 51.97411 12.78387 20374 ft 371 kts 244°
2026-05-05 18:42 51.96313 12.74585 21091 ft 373 kts 244°
2026-05-05 18:42 51.95221 12.70811 21606 ft 377 kts 243°
2026-05-05 18:43 51.94089 12.66907 21778 ft 378 kts 243°
2026-05-05 18:43 51.92969 12.63049 21819 ft 378 kts 243°
2026-05-05 18:43 51.92227 12.60496 21817 ft 378 kts 243°
2026-05-05 18:43 51.90744 12.55405 21819 ft 378 kts 243°
2026-05-05 18:44 51.89620 12.51550 21819 ft 378 kts 243°
2026-05-05 18:44 51.88491 12.47691 21817 ft 379 kts 243°
2026-05-05 18:44 51.87730 12.45089 21818 ft 379 kts 243°
2026-05-05 18:44 51.86602 12.41241 21824 ft 379 kts 243°
2026-05-05 18:45 51.85105 12.36142 21821 ft 379 kts 243°
2026-05-05 18:45 51.83973 12.32294 21821 ft 379 kts 243°
2026-05-05 18:45 51.83206 12.29691 21821 ft 379 kts 243°
2026-05-05 18:45 51.82088 12.25901 21820 ft 379 kts 243°
2026-05-05 18:46 51.80950 12.22050 21824 ft 379 kts 243°
2026-05-05 18:46 51.79813 12.18207 21822 ft 380 kts 243°
2026-05-05 18:46 51.78672 12.14356 21820 ft 380 kts 243°
2026-05-05 18:46 51.77532 12.10515 21818 ft 380 kts 243°
2026-05-05 18:47 51.76389 12.06671 21817 ft 379 kts 243°
2026-05-05 18:47 51.75264 12.02894 21821 ft 380 kts 243°
2026-05-05 18:47 51.74104 11.99007 21818 ft 380 kts 243°
2026-05-05 18:47 51.72954 11.95156 21821 ft 380 kts 243°
2026-05-05 18:48 51.71805 11.91318 21820 ft 380 kts 243°
2026-05-05 18:48 51.70655 11.87480 21823 ft 381 kts 243°
2026-05-05 18:48 51.69375 11.83761 21828 ft 379 kts 233°
2026-05-05 18:48 51.67721 11.80437 21828 ft 379 kts 229°
2026-05-05 18:49 51.65980 11.77254 21824 ft 379 kts 227°
2026-05-05 18:49 51.64235 11.74071 21823 ft 379 kts 228°
2026-05-05 18:49 51.62510 11.70858 21825 ft 379 kts 229°
2026-05-05 18:49 51.60804 11.67622 21824 ft 379 kts 229°
2026-05-05 18:50 51.59106 11.64370 21829 ft 380 kts 229°
2026-05-05 18:50 51.57411 11.61114 21826 ft 379 kts 229°
2026-05-05 18:50 51.55711 11.57846 21822 ft 388 kts 229°
2026-05-05 18:50 51.53937 11.54444 21822 ft 405 kts 229°
2026-05-05 18:51 51.52121 11.50965 21821 ft 406 kts 229°
2026-05-05 18:51 51.50306 11.47491 21816 ft 406 kts 229°
2026-05-05 18:51 51.48493 11.44028 21818 ft 406 kts 229°
2026-05-05 18:51 51.46673 11.40555 21827 ft 406 kts 229°
2026-05-05 18:52 51.44852 11.37086 21816 ft 406 kts 229°
2026-05-05 18:52 51.43033 11.33626 21817 ft 406 kts 229°
2026-05-05 18:52 51.41210 11.30164 21816 ft 407 kts 229°
2026-05-05 18:52 51.39386 11.26704 21816 ft 406 kts 229°
2026-05-05 18:53 51.37563 11.23250 21807 ft 406 kts 229°
2026-05-05 18:53 51.35739 11.19800 21818 ft 406 kts 229°
2026-05-05 18:53 51.33912 11.16348 21805 ft 406 kts 229°
2026-05-05 18:53 51.32084 11.12898 21804 ft 406 kts 229°
2026-05-05 18:54 51.30255 11.09453 21812 ft 407 kts 229°
2026-05-05 18:54 51.28423 11.06006 21806 ft 407 kts 229°
2026-05-05 18:54 51.26589 11.02560 21808 ft 407 kts 228°
2026-05-05 18:54 51.24752 10.99112 21813 ft 407 kts 228°
2026-05-05 18:55 51.22916 10.95671 21808 ft 407 kts 228°
2026-05-05 18:55 51.21078 10.92231 21797 ft 408 kts 228°
2026-05-05 18:55 51.19240 10.88795 21806 ft 408 kts 228°
2026-05-05 18:55 51.17397 10.85357 21813 ft 408 kts 228°
2026-05-05 18:56 51.15553 10.81918 21795 ft 408 kts 228°
2026-05-05 18:56 51.13712 10.78492 21800 ft 408 kts 228°
2026-05-05 18:56 51.11863 10.75055 21805 ft 408 kts 228°
2026-05-05 18:56 51.10019 10.71632 21805 ft 408 kts 228°
2026-05-05 18:57 51.08171 10.68205 21813 ft 408 kts 227°
2026-05-05 18:57 51.06319 10.64776 21798 ft 409 kts 227°
2026-05-05 18:57 51.04464 10.61346 21798 ft 409 kts 227°
2026-05-05 18:57 51.02613 10.57927 21805 ft 409 kts 227°
2026-05-05 18:58 51.00751 10.54494 21799 ft 409 kts 227°
2026-05-05 18:58 50.98894 10.51073 21799 ft 410 kts 227°
2026-05-05 18:58 50.97031 10.47648 21805 ft 410 kts 227°
2026-05-05 18:58 50.95162 10.44215 21810 ft 411 kts 227°
2026-05-05 18:59 50.93290 10.40783 21799 ft 411 kts 227°
2026-05-05 18:59 50.91419 10.37354 21804 ft 411 kts 227°
2026-05-05 18:59 50.89543 10.33924 21802 ft 413 kts 227°
2026-05-05 18:59 50.87661 10.30485 21803 ft 412 kts 227°
2026-05-05 19:00 50.85780 10.27057 21797 ft 413 kts 227°
2026-05-05 19:00 50.83911 10.23650 21732 ft 405 kts 227°
2026-05-05 19:00 50.82091 10.20333 21613 ft 393 kts 227°
2026-05-05 19:00 50.80322 10.17114 21236 ft 382 kts 227°
2026-05-05 19:01 50.78588 10.13965 20285 ft 379 kts 227°
2026-05-05 19:01 50.76862 10.10839 19394 ft 376 kts 227°
2026-05-05 19:01 50.75149 10.07741 18516 ft 373 kts 227°
2026-05-05 19:01 50.73476 10.04717 17618 ft 369 kts 227°
2026-05-05 19:02 50.71795 10.01682 16724 ft 365 kts 227°
2026-05-05 19:02 50.70135 9.98688 15844 ft 361 kts 227°
2026-05-05 19:02 50.68492 9.95730 14989 ft 357 kts 227°
2026-05-05 19:02 50.66860 9.92793 14211 ft 356 kts 227°
2026-05-05 19:03 50.65232 9.89871 13686 ft 353 kts 227°
2026-05-05 19:03 50.63625 9.86985 13122 ft 349 kts 227°
2026-05-05 19:03 50.62030 9.84125 12560 ft 345 kts 227°
2026-05-05 19:03 50.60456 9.81304 12109 ft 340 kts 227°
2026-05-05 19:04 50.58900 9.78518 11851 ft 342 kts 227°
2026-05-05 19:04 50.57325 9.75705 11597 ft 342 kts 227°
2026-05-05 19:04 50.55764 9.72915 11352 ft 338 kts 227°
2026-05-05 19:04 50.54213 9.70148 11107 ft 337 kts 227°
2026-05-05 19:05 50.52666 9.67391 10886 ft 335 kts 227°
2026-05-05 19:05 50.51130 9.64657 10814 ft 334 kts 227°
2026-05-05 19:05 50.49589 9.61916 10814 ft 335 kts 227°
2026-05-05 19:05 50.48156 9.59035 10813 ft 336 kts 236°
2026-05-05 19:06 50.47007 9.55848 10813 ft 335 kts 237°
2026-05-05 19:06 50.45613 9.52921 10813 ft 334 kts 229°
2026-05-05 19:06 50.44126 9.50132 10816 ft 334 kts 229°
2026-05-05 19:06 50.42635 9.47342 10817 ft 334 kts 229°
2026-05-05 19:07 50.41142 9.44556 10815 ft 333 kts 229°
2026-05-05 19:07 50.39648 9.41782 10815 ft 333 kts 229°
2026-05-05 19:07 50.38157 9.39015 10816 ft 332 kts 229°
2026-05-05 19:07 50.36673 9.36265 10656 ft 329 kts 229°
2026-05-05 19:08 50.35197 9.33538 10261 ft 327 kts 229°
2026-05-05 19:08 50.33743 9.30860 10052 ft 316 kts 229°
2026-05-05 19:08 50.32349 9.28293 9915 ft 302 kts 229°
2026-05-05 19:08 50.31022 9.25849 9807 ft 288 kts 229°
2026-05-05 19:09 50.29748 9.23502 9613 ft 278 kts 229°
2026-05-05 19:09 50.28500 9.21213 9204 ft 276 kts 229°
2026-05-05 19:09 50.27255 9.18943 8801 ft 273 kts 229°
2026-05-05 19:09 50.26019 9.16698 8394 ft 272 kts 229°
2026-05-05 19:10 50.24789 9.14475 8016 ft 269 kts 229°
2026-05-05 19:10 50.23574 9.12284 7845 ft 268 kts 229°
2026-05-05 19:10 50.22334 9.10058 7827 ft 277 kts 229°
2026-05-05 19:10 50.21055 9.07763 7800 ft 281 kts 229°
2026-05-05 19:11 50.19803 9.05527 7666 ft 278 kts 229°
2026-05-05 19:11 50.18509 9.03220 7324 ft 275 kts 229°
2026-05-05 19:11 50.17273 9.01022 7141 ft 266 kts 229°
2026-05-05 19:11 50.16058 8.98864 6760 ft 264 kts 230°
2026-05-05 19:12 50.15030 8.96529 6485 ft 263 kts 241°
2026-05-05 19:12 50.14256 8.93922 6138 ft 265 kts 247°
2026-05-05 19:12 50.13618 8.91232 5756 ft 263 kts 249°
2026-05-05 19:12 50.12986 8.88573 5391 ft 260 kts 249°
2026-05-05 19:13 50.12358 8.85937 5020 ft 258 kts 249°
2026-05-05 19:13 50.11736 8.83331 4662 ft 256 kts 249°
2026-05-05 19:13 50.11118 8.80739 4292 ft 255 kts 249°
2026-05-05 19:13 50.10498 8.78139 3927 ft 257 kts 249°
2026-05-05 19:14 50.09887 8.75579 3549 ft 253 kts 249°
2026-05-05 19:14 50.09287 8.73063 3199 ft 243 kts 250°
2026-05-05 19:14 50.08710 8.70645 2863 ft 235 kts 250°
2026-05-05 19:14 50.08149 8.68298 2529 ft 228 kts 250°
2026-05-05 19:15 50.07597 8.65989 2198 ft 221 kts 250°
2026-05-05 19:15 50.07093 8.63876 1902 ft 200 kts 250°
2026-05-05 19:15 50.06596 8.61799 2540 ft 203 kts 250°
2026-05-05 19:15 50.06104 8.59738 3521 ft 206 kts 249°
2026-05-05 19:16 50.05606 8.57652 4383 ft 204 kts 249°
2026-05-05 19:16 50.05109 8.55575 4786 ft 206 kts 249°
2026-05-05 19:16 50.04608 8.53483 4951 ft 207 kts 249°
2026-05-05 19:16 50.04107 8.51389 5000 ft 206 kts 249°
2026-05-05 19:17 50.03679 8.49262 5000 ft 207 kts 264°
2026-05-05 19:17 50.03965 8.47085 5001 ft 212 kts 298°
2026-05-05 19:17 50.05037 8.45500 5002 ft 219 kts 332°
2026-05-05 19:17 50.06611 8.45079 5037 ft 245 kts
2026-05-05 19:18 50.08194 8.46014 5002 ft 248 kts 37°
2026-05-05 19:18 50.09353 8.48007 5003 ft 249 kts 53°
2026-05-05 19:18 50.10390 8.50172 5003 ft 249 kts 53°
2026-05-05 19:18 50.11424 8.52343 5000 ft 249 kts 53°
2026-05-05 19:19 50.12455 8.54512 5001 ft 249 kts 53°
2026-05-05 19:19 50.13489 8.56685 5004 ft 250 kts 53°
2026-05-05 19:19 50.14354 8.59016 5007 ft 249 kts 72°
2026-05-05 19:19 50.14886 8.61593 5002 ft 249 kts 73°
2026-05-05 19:20 50.15403 8.64165 5006 ft 249 kts 73°
2026-05-05 19:20 50.15920 8.66746 5005 ft 249 kts 73°
2026-05-05 19:20 50.16440 8.69328 5008 ft 250 kts 73°
2026-05-05 19:20 50.16957 8.71899 5007 ft 249 kts 73°
2026-05-05 19:21 50.17475 8.74488 5007 ft 250 kts 73°
2026-05-05 19:21 50.17987 8.77064 5007 ft 249 kts 73°
2026-05-05 19:21 50.18498 8.79629 5007 ft 242 kts 73°
2026-05-05 19:21 50.18979 8.82041 5007 ft 225 kts 73°
2026-05-05 19:22 50.19452 8.84404 5010 ft 230 kts 73°
2026-05-05 19:22 50.19924 8.86766 5012 ft 228 kts 73°
2026-05-05 19:22 50.20397 8.89126 5011 ft 228 kts 73°
2026-05-05 19:22 50.20584 8.91540 5015 ft 225 kts 102°
2026-05-05 19:23 50.19942 8.93695 5015 ft 219 kts 136°
2026-05-05 19:23 50.18672 8.94894 5012 ft 212 kts 171°
2026-05-05 19:23 50.17241 8.94739 5023 ft 206 kts 205°
2026-05-05 19:23 50.16106 8.93448 5014 ft 204 kts 223°
2026-05-05 19:24 50.15056 8.91945 5014 ft 204 kts 224°
2026-05-05 19:24 50.14014 8.90436 5010 ft 205 kts 226°
2026-05-05 19:24 50.13166 8.88706 5011 ft 204 kts 240°
2026-05-05 19:24 50.12564 8.86757 5002 ft 190 kts 247°
2026-05-05 19:25 50.12110 8.84899 4861 ft 175 kts 249°
2026-05-05 19:25 50.11695 8.83149 4627 ft 171 kts 249°
2026-05-05 19:25 50.11279 8.81408 4377 ft 171 kts 249°
2026-05-05 19:25 50.10867 8.79681 4136 ft 171 kts 249°
2026-05-05 19:26 50.10452 8.77945 3887 ft 170 kts 249°
2026-05-05 19:26 50.10041 8.76223 3648 ft 170 kts 249°
2026-05-05 19:26 50.09628 8.74492 3405 ft 170 kts 249°
2026-05-05 19:26 50.09220 8.72783 3165 ft 169 kts 249°
2026-05-05 19:27 50.08809 8.71059 2926 ft 170 kts 250°
2026-05-05 19:27 50.08403 8.69361 2683 ft 170 kts 250°
2026-05-05 19:27 50.07996 8.67657 2441 ft 167 kts 250°
2026-05-05 19:27 50.07595 8.65977 2215 ft 166 kts 250°
2026-05-05 19:28 50.07192 8.64291 1968 ft 167 kts 250°
2026-05-05 19:28 50.06784 8.62584 1728 ft 169 kts 249°
2026-05-05 19:28 50.06364 8.60827 1473 ft 175 kts 249°
2026-05-05 19:28 50.05933 8.59042 1272 ft 178 kts 249°
2026-05-05 19:29 50.05507 8.57250 1020 ft 168 kts 249°
2026-05-05 19:29 50.05127 8.55656 730 ft 149 kts 249°
2026-05-05 19:29 50.04785 8.54227 515 ft 135 kts 248°
2026-05-05 19:29 50.04446 8.52810 373 ft 139 kts 248°
2026-05-05 19:30 50.04155 8.51582 333 ft 87 kts 249°
2026-05-05 19:30 50.04024 8.51086 328 ft 34 kts 235°
2026-05-05 19:30 50.03892 8.50897 323 ft 15 kts 218°
2026-05-05 19:30 50.03841 8.50838 328 ft 9 kts 205°
2026-05-05 19:31 50.03793 8.50852 332 ft 6 kts 140°
2026-05-05 19:31 50.03785 8.50869 332 ft 0 kts 121°
2026-05-05 19:31 50.03782 8.50886 330 ft 3 kts 103°
2026-05-05 19:32 50.03782 8.50902 332 ft 0 kts 87°
2026-05-05 19:32 50.03783 8.50915 332 ft 3 kts 82°
2026-05-05 19:32 50.03790 8.50960 334 ft 6 kts 76°
2026-05-05 19:32 50.03810 8.51048 333 ft 11 kts 68°
2026-05-05 19:33 50.03842 8.51173 333 ft 14 kts 68°
2026-05-05 19:33 50.03874 8.51308 332 ft 10 kts 71°
2026-05-05 19:33 50.03902 8.51432 333 ft 14 kts 70°
2026-05-05 19:33 50.03943 8.51594 332 ft 18 kts 68°
2026-05-05 19:34 50.03978 8.51746 334 ft 14 kts 70°
2026-05-05 19:34 50.04015 8.51905 335 ft 17 kts 69°
2026-05-05 19:34 50.04060 8.52087 336 ft 17 kts 69°
2026-05-05 19:35 50.04124 8.52358 350 ft 15 kts 69°
2026-05-05 19:35 50.04162 8.52516 355 ft 17 kts 70°
2026-05-05 19:35 50.04206 8.52694 354 ft 19 kts 66°
2026-05-05 19:35 50.04257 8.52888 360 ft 20 kts 74°
2026-05-05 19:36 50.04302 8.53104 363 ft 20 kts 70°
2026-05-05 19:36 50.04335 8.53243 364 ft 13 kts 70°
2026-05-05 19:36 50.04365 8.53363 370 ft 11 kts 68°
2026-05-05 19:36 50.04390 8.53471 374 ft 10 kts 72°
2026-05-05 19:37 50.04405 8.53591 375 ft 13 kts 84°
2026-05-05 19:37 50.04414 8.53753 375 ft 17 kts 86°
2026-05-05 19:37 50.04425 8.53955 375 ft 20 kts 83°
2026-05-05 19:37 50.04440 8.54182 375 ft 21 kts 84°
2026-05-05 19:38 50.04454 8.54389 372 ft 18 kts 84°
2026-05-05 19:38 50.04435 8.54569 369 ft 14 kts 114°
2026-05-05 19:38 50.04371 8.54708 360 ft 15 kts 137°
2026-05-05 19:38 50.04284 8.54788 360 ft 13 kts 158°
2026-05-05 19:39 50.04213 8.54827 355 ft 10 kts 160°
2026-05-05 19:39 50.04157 8.54859 358 ft 9 kts 160°
2026-05-05 19:39 50.04107 8.54888 350 ft 3 kts 160°
2026-05-05 19:39 50.04083 8.54902 351 ft 2 kts 160°
2026-05-05 19:41 50.04082 8.54903 350 ft 1 kts 160°
2026-05-05 19:41 50.04051 8.54921 353 ft 7 kts 159°
2026-05-05 19:41 50.03992 8.54956 354 ft 11 kts 159°
2026-05-05 19:42 50.03916 8.55001 355 ft 10 kts 160°
2026-05-05 19:42 50.03847 8.55064 354 ft 12 kts 116°
2026-05-05 19:42 50.03860 8.55143 352 ft 9 kts 72°
2026-05-05 19:42 50.03882 8.55253 357 ft 13 kts 70°
2026-05-05 19:43 50.03919 8.55406 351 ft 17 kts 70°
2026-05-05 19:43 50.03963 8.55592 353 ft 16 kts 68°
2026-05-05 19:43 50.04003 8.55757 357 ft 10 kts 69°
2026-05-05 19:43 50.04029 8.55868 358 ft 13 kts 70°
2026-05-05 19:44 50.04059 8.56000 352 ft 10 kts 69°
2026-05-05 19:44 50.04087 8.56113 355 ft 11 kts 69°
2026-05-05 19:44 50.04114 8.56221 357 ft 12 kts 69°
2026-05-05 19:44 50.04140 8.56336 361 ft 11 kts 70°
2026-05-05 19:45 50.04171 8.56466 361 ft 13 kts 69°
2026-05-05 19:45 50.04194 8.56558 360 ft 8 kts 69°
2026-05-05 19:45 50.04209 8.56619 358 ft 1 kts 71°
2026-05-05 19:45 50.04219 8.56662 364 ft 6 kts 69°
2026-05-05 19:46 50.04238 8.56741 359 ft 9 kts 69°
2026-05-05 19:46 50.04259 8.56786 361 ft 6 kts 38°
2026-05-05 19:46 50.04308 8.56815 361 ft 10 kts 11°
2026-05-05 19:46 50.04389 8.56840 362 ft 14 kts 11°
2026-05-05 19:47 50.04486 8.56867 359 ft 11 kts 12°
2026-05-05 19:47 50.04536 8.56886 359 ft 6 kts 14°
2026-05-05 19:47 50.04574 8.56893 359 ft 6 kts 341°
2026-05-05 19:47 50.04589 8.56837 361 ft 3 kts 290°
2026-05-05 19:48 50.04597 8.56809 358 ft 3 kts 293°
2026-05-05 19:48 50.04600 8.56797 357 ft 2 kts 295°
2026-05-05 19:48 50.04603 8.56789 362 ft 0 kts 294°
2026-05-05 19:48 50.04605 8.56782 361 ft 1 kts 295°
2026-05-05 19:49 50.04605 8.56781 360 ft 0 kts 294°